Time,TemperatureF,DewpointF,PressureIn,WindDirection,WindDirectionDegrees,WindSpeedMPH,WindSpeedGustMPH,Humidity,HourlyPrecipIn,Conditions,Clouds,dailyrainin,SoftwareType,DateUTC
2013-04-15 00:03:00,44.8,31.8,29.66,North,355,0.0,0.0,60,0.00,,,0.00,Wunderground v.1.15,2013-04-15 05:03:00,
2013-04-15 00:13:00,44.2,31.6,29.66,North,355,0.0,0.0,61,0.00,,,0.00,Wunderground v.1.15,2013-04-15 05:13:00,
2013-04-15 00:23:00,43.6,31.4,29.67,North,355,0.0,0.0,62,0.00,,,0.00,Wunderground v.1.15,2013-04-15 05:23:00,
2013-04-15 00:33:00,43.1,31.4,29.67,North,355,0.0,0.0,63,0.00,,,0.00,Wunderground v.1.15,2013-04-15 05:33:00,
2013-04-15 00:43:00,42.5,31.6,29.67,North,355,0.0,0.0,65,0.00,,,0.00,Wunderground v.1.15,2013-04-15 05:43:00,
2013-04-15 00:53:00,42.1,31.6,29.67,North,355,0.0,0.0,66,0.00,,,0.00,Wunderground v.1.15,2013-04-15 05:53:00,
2013-04-15 01:03:00,41.8,31.3,29.66,North,355,0.0,0.0,66,0.00,,,0.00,Wunderground v.1.15,2013-04-15 06:03:00,
2013-04-15 01:13:00,41.5,31.0,29.67,North,355,0.0,0.0,66,0.00,,,0.00,Wunderground v.1.15,2013-04-15 06:13:00,
2013-04-15 01:23:00,41.1,30.6,29.67,North,355,0.0,0.0,66,0.00,,,0.00,Wunderground v.1.15,2013-04-15 06:23:00,
2013-04-15 01:33:00,40.7,30.6,29.68,North,355,0.0,0.0,67,0.00,,,0.00,Wunderground v.1.15,2013-04-15 06:33:00,
2013-04-15 01:43:00,40.3,30.6,29.67,North,355,0.0,0.0,68,0.00,,,0.00,Wunderground v.1.15,2013-04-15 06:43:00,
2013-04-15 01:53:00,39.9,30.2,29.67,North,355,0.0,1.0,68,0.00,,,0.00,Wunderground v.1.15,2013-04-15 06:53:00,
2013-04-15 02:03:00,39.6,29.9,29.67,North,355,0.0,0.0,68,0.00,,,0.00,Wunderground v.1.15,2013-04-15 07:03:00,
2013-04-15 02:43:00,38.6,29.3,29.69,North,355,0.0,0.0,69,0.00,,,0.00,Wunderground v.1.15,2013-04-15 07:43:00,
2013-04-15 02:48:00,38.6,29.3,29.69,North,355,0.0,0.0,69,0.00,,,0.00,Wunderground v.1.15,2013-04-15 07:48:00,
2013-04-15 02:53:00,38.5,29.2,29.69,North,355,0.0,0.0,69,0.00,,,0.00,Wunderground v.1.15,2013-04-15 07:53:00,
2013-04-15 02:58:00,38.4,28.8,29.69,North,355,0.0,0.0,68,0.00,,,0.00,Wunderground v.1.15,2013-04-15 07:58:00,
2013-04-15 03:03:00,38.3,28.7,29.69,North,355,0.0,0.0,68,0.00,,,0.00,Wunderground v.1.15,2013-04-15 08:03:00,
2013-04-15 03:18:00,37.9,28.3,29.69,North,355,0.0,0.0,68,0.00,,,0.00,Wunderground v.1.15,2013-04-15 08:18:00,
2013-04-15 03:23:00,37.6,28.0,29.70,North,355,0.0,0.0,68,0.00,,,0.00,Wunderground v.1.15,2013-04-15 08:23:00,
2013-04-15 03:33:00,37.2,27.6,29.71,North,355,0.0,0.0,68,0.00,,,0.00,Wunderground v.1.15,2013-04-15 08:33:00,
2013-04-15 03:43:00,36.7,27.5,29.71,North,351,0.0,1.0,69,0.00,,,0.00,Wunderground v.1.15,2013-04-15 08:43:00,
2013-04-15 03:48:00,36.5,27.6,29.71,North,350,0.0,1.0,70,0.00,,,0.00,Wunderground v.1.15,2013-04-15 08:48:00,
2013-04-15 03:53:00,36.4,27.5,29.72,North,350,0.0,0.0,70,0.00,,,0.00,Wunderground v.1.15,2013-04-15 08:53:00,
2013-04-15 04:03:00,36.1,27.6,29.72,North,350,0.0,0.0,71,0.00,,,0.00,Wunderground v.1.15,2013-04-15 09:03:00,
2013-04-15 04:13:00,36.0,27.8,29.72,North,349,0.0,0.0,72,0.00,,,0.00,Wunderground v.1.15,2013-04-15 09:13:00,
2013-04-15 04:23:00,35.9,28.1,29.74,North,350,0.0,0.0,73,0.00,,,0.00,Wunderground v.1.15,2013-04-15 09:23:00,
2013-04-15 04:33:00,36.1,28.9,29.74,NNE,22,1.0,1.0,75,0.00,,,0.00,Wunderground v.1.15,2013-04-15 09:33:00,
2013-04-15 04:43:00,36.4,29.2,29.73,NNE,13,0.0,0.0,75,0.00,,,0.00,Wunderground v.1.15,2013-04-15 09:43:00,
2013-04-15 04:53:00,36.8,29.3,29.73,NNE,25,1.0,4.0,74,0.00,,,0.00,Wunderground v.1.15,2013-04-15 09:53:00,
2013-04-15 05:03:00,37.1,29.2,29.73,NNE,22,0.0,0.0,73,0.00,,,0.00,Wunderground v.1.15,2013-04-15 10:03:00,
2013-04-15 05:13:00,37.2,29.0,29.75,NNE,22,0.0,0.0,72,0.00,,,0.00,Wunderground v.1.15,2013-04-15 10:13:00,
2013-04-15 05:23:00,37.2,29.0,29.75,NNE,22,0.0,0.0,72,0.00,,,0.00,Wunderground v.1.15,2013-04-15 10:23:00,
2013-04-15 05:33:00,37.0,28.5,29.75,NNE,22,0.0,0.0,71,0.00,,,0.00,Wunderground v.1.15,2013-04-15 10:33:00,
2013-04-15 05:43:00,36.8,28.3,29.76,NW,313,1.0,1.0,71,0.00,,,0.00,Wunderground v.1.15,2013-04-15 10:43:00,
2013-04-15 05:53:00,36.7,28.2,29.76,NW,313,0.0,0.0,71,0.00,,,0.00,Wunderground v.1.15,2013-04-15 10:53:00,
2013-04-15 06:03:00,36.5,28.3,29.77,NW,312,0.0,0.0,72,0.00,,,0.00,Wunderground v.1.15,2013-04-15 11:03:00,
2013-04-15 06:18:00,36.2,27.7,29.79,NW,312,0.0,0.0,71,0.00,,,0.00,Wunderground v.1.15,2013-04-15 11:18:00,
2013-04-15 06:23:00,36.1,27.6,29.80,NW,311,0.0,0.0,71,0.00,,,0.00,Wunderground v.1.15,2013-04-15 11:23:00,
2013-04-15 06:33:00,35.8,27.3,29.81,NW,312,0.0,0.0,71,0.00,,,0.00,Wunderground v.1.15,2013-04-15 11:33:00,
2013-04-15 06:43:00,35.4,26.9,29.82,NW,312,0.0,0.0,71,0.00,,,0.00,Wunderground v.1.15,2013-04-15 11:43:00,
2013-04-15 06:53:00,35.0,26.9,29.81,NW,323,0.0,0.0,72,0.00,,,0.00,Wunderground v.1.15,2013-04-15 11:53:00,
2013-04-15 07:03:00,34.7,26.9,29.82,NNE,28,0.0,0.0,73,0.00,,,0.00,Wunderground v.1.15,2013-04-15 12:03:00,
2013-04-15 07:13:00,34.4,27.3,29.84,North,355,0.0,0.0,75,0.00,,,0.00,Wunderground v.1.15,2013-04-15 12:13:00,
2013-04-15 07:23:00,34.5,27.4,29.84,North,11,0.0,1.0,75,0.00,,,0.00,Wunderground v.1.15,2013-04-15 12:23:00,
2013-04-15 07:33:00,34.8,27.7,29.85,North,5,0.0,0.0,75,0.00,,,0.00,Wunderground v.1.15,2013-04-15 12:33:00,
2013-04-15 07:43:00,35.2,28.1,29.86,North,355,0.0,0.0,75,0.00,,,0.00,Wunderground v.1.15,2013-04-15 12:43:00,
2013-04-15 07:53:00,35.5,28.0,29.85,North,349,0.0,0.0,74,0.00,,,0.00,Wunderground v.1.15,2013-04-15 12:53:00,
2013-04-15 08:03:00,35.8,28.0,29.86,North,355,0.0,0.0,73,0.00,,,0.00,Wunderground v.1.15,2013-04-15 13:03:00,
2013-04-15 08:13:00,36.2,27.7,29.86,NW,307,0.0,0.0,71,0.00,,,0.00,Wunderground v.1.15,2013-04-15 13:13:00,
2013-04-15 08:23:00,36.7,28.2,29.86,West,279,0.0,0.0,71,0.00,,,0.00,Wunderground v.1.15,2013-04-15 13:23:00,
2013-04-15 08:33:00,37.3,28.1,29.87,West,263,1.0,1.0,69,0.00,,,0.00,Wunderground v.1.15,2013-04-15 13:33:00,
2013-04-15 08:43:00,37.5,27.2,29.88,NNE,28,2.0,2.0,66,0.00,,,0.00,Wunderground v.1.15,2013-04-15 13:43:00,
2013-04-15 08:53:00,37.5,26.0,29.88,North,355,2.0,3.0,63,0.00,,,0.00,Wunderground v.1.15,2013-04-15 13:53:00,
2013-04-15 09:03:00,37.4,25.9,29.89,WSW,252,1.0,1.0,63,0.00,,,0.00,Wunderground v.1.15,2013-04-15 14:03:00,
2013-04-15 09:13:00,37.0,24.8,29.89,North,360,2.0,2.0,61,0.00,,,0.00,Wunderground v.1.15,2013-04-15 14:13:00,
2013-04-15 09:23:00,36.8,25.0,29.91,NNE,17,3.0,6.0,62,0.00,,,0.00,Wunderground v.1.15,2013-04-15 14:23:00,
2013-04-15 09:33:00,36.6,24.8,29.90,NNE,28,4.0,4.0,62,0.00,,,0.00,Wunderground v.1.15,2013-04-15 14:33:00,
2013-04-15 09:43:00,36.5,24.7,29.89,NNW,347,4.0,4.0,62,0.00,,,0.00,Wunderground v.1.15,2013-04-15 14:43:00,
2013-04-15 09:53:00,36.6,25.2,29.89,North,355,2.0,2.0,63,0.00,,,0.00,Wunderground v.1.15,2013-04-15 14:53:00,
2013-04-15 10:03:00,36.6,25.2,29.90,NNE,19,1.0,3.0,63,0.00,,,0.00,Wunderground v.1.15,2013-04-15 15:03:00,
2013-04-15 10:13:00,36.7,24.9,29.90,North,360,1.0,1.0,62,0.00,,,0.00,Wunderground v.1.15,2013-04-15 15:13:00,
2013-04-15 10:23:00,36.7,25.3,29.90,North,360,0.0,0.0,63,0.00,,,0.00,Wunderground v.1.15,2013-04-15 15:23:00,
2013-04-15 10:33:00,36.9,25.9,29.90,NNW,340,1.0,1.0,64,0.00,,,0.00,Wunderground v.1.15,2013-04-15 15:33:00,
2013-04-15 10:43:00,37.2,26.5,29.90,NW,321,1.0,4.0,65,0.00,,,0.00,Wunderground v.1.15,2013-04-15 15:43:00,
2013-04-15 10:53:00,37.5,27.5,29.91,NNE,31,2.0,2.0,67,0.00,,,0.00,Wunderground v.1.15,2013-04-15 15:53:00,
2013-04-15 11:03:00,37.7,28.4,29.92,NE,36,1.0,1.0,69,0.00,,,0.00,Wunderground v.1.15,2013-04-15 16:03:00,
2013-04-15 11:13:00,37.8,28.9,29.93,North,355,1.0,1.0,70,0.00,,,0.00,Wunderground v.1.15,2013-04-15 16:13:00,
2013-04-15 11:28:00,37.6,29.4,29.94,NNW,334,1.0,2.0,72,0.00,,,0.00,Wunderground v.1.15,2013-04-15 16:28:00,
2013-04-15 11:33:00,37.5,29.3,29.94,NW,315,1.0,1.0,72,0.00,,,0.00,Wunderground v.1.15,2013-04-15 16:33:00,
2013-04-15 11:43:00,37.5,29.3,29.94,NNE,23,1.0,2.0,72,0.00,,,0.00,Wunderground v.1.15,2013-04-15 16:43:00,
2013-04-15 11:53:00,37.7,28.4,29.95,WNW,302,2.0,2.0,69,0.00,,,0.00,Wunderground v.1.15,2013-04-15 16:53:00,
2013-04-15 12:03:00,38.1,28.5,29.96,NNE,29,3.0,3.0,68,0.00,,,0.00,Wunderground v.1.15,2013-04-15 17:03:00,
2013-04-15 12:13:00,38.4,27.7,29.96,North,9,3.0,3.0,65,0.00,,,0.00,Wunderground v.1.15,2013-04-15 17:13:00,
2013-04-15 12:23:00,38.8,28.0,29.96,WSW,249,3.0,4.0,65,0.00,,,0.00,Wunderground v.1.15,2013-04-15 17:23:00,
2013-04-15 12:33:00,39.4,28.6,29.95,NNE,15,2.0,2.0,65,0.00,,,0.00,Wunderground v.1.15,2013-04-15 17:33:00,
2013-04-15 12:43:00,40.0,29.2,29.95,North,11,3.0,3.0,65,0.00,,,0.00,Wunderground v.1.15,2013-04-15 17:43:00,
2013-04-15 12:48:00,40.3,29.1,29.95,WNW,303,3.0,4.0,64,0.00,,,0.00,Wunderground v.1.15,2013-04-15 17:48:00,
2013-04-15 12:53:00,40.6,29.7,29.95,WNW,296,3.0,3.0,65,0.00,,,0.00,Wunderground v.1.15,2013-04-15 17:53:00,
2013-04-15 13:03:00,41.2,29.9,29.95,NNE,14,2.0,2.0,64,0.00,,,0.00,Wunderground v.1.15,2013-04-15 18:03:00,
2013-04-15 13:13:00,41.6,29.5,29.95,North,355,2.0,3.0,62,0.00,,,0.00,Wunderground v.1.15,2013-04-15 18:13:00,
2013-04-15 13:23:00,41.8,28.9,29.95,North,360,3.0,3.0,60,0.00,,,0.00,Wunderground v.1.15,2013-04-15 18:23:00,
2013-04-15 13:33:00,41.8,28.9,29.95,NNE,29,3.0,3.0,60,0.00,,,0.00,Wunderground v.1.15,2013-04-15 18:33:00,
2013-04-15 13:43:00,41.9,28.6,29.95,North,360,3.0,4.0,59,0.00,,,0.00,Wunderground v.1.15,2013-04-15 18:43:00,
2013-04-15 13:48:00,41.9,29.0,29.95,North,9,4.0,6.0,60,0.00,,,0.00,Wunderground v.1.15,2013-04-15 18:48:00,
2013-04-15 13:53:00,41.8,28.9,29.95,North,355,3.0,5.0,60,0.00,,,0.00,Wunderground v.1.15,2013-04-15 18:53:00,
2013-04-15 14:03:00,42.0,29.5,29.95,NW,321,1.0,1.0,61,0.00,,,0.00,Wunderground v.1.15,2013-04-15 19:03:00,
2013-04-15 14:08:00,42.0,29.9,29.95,NE,39,1.0,1.0,62,0.00,,,0.00,Wunderground v.1.15,2013-04-15 19:08:00,
2013-04-15 14:13:00,42.2,30.1,29.95,NNW,345,1.0,1.0,62,0.00,,,0.00,Wunderground v.1.15,2013-04-15 19:13:00,
2013-04-15 14:23:00,42.5,30.4,29.95,NNE,32,1.0,1.0,62,0.00,,,0.00,Wunderground v.1.15,2013-04-15 19:23:00,
2013-04-15 14:33:00,42.9,30.8,29.95,NW,322,3.0,7.0,62,0.00,,,0.00,Wunderground v.1.15,2013-04-15 19:33:00,
2013-04-15 14:43:00,43.3,30.3,29.95,NNW,336,3.0,4.0,60,0.00,,,0.00,Wunderground v.1.15,2013-04-15 19:43:00,
2013-04-15 14:53:00,43.5,30.5,29.95,NW,324,2.0,5.0,60,0.00,,,0.00,Wunderground v.1.15,2013-04-15 19:53:00,
2013-04-15 14:58:00,43.7,31.1,29.95,North,360,2.0,5.0,61,0.00,,,0.00,Wunderground v.1.15,2013-04-15 19:58:00,
2013-04-15 15:03:00,43.8,30.8,29.95,NNE,16,2.0,5.0,60,0.00,,,0.00,Wunderground v.1.15,2013-04-15 20:03:00,
2013-04-15 15:08:00,44.0,31.0,29.94,NE,45,3.0,5.0,60,0.00,,,0.00,Wunderground v.1.15,2013-04-15 20:08:00,
2013-04-15 15:13:00,44.2,31.2,29.94,NNW,334,2.0,2.0,60,0.00,,,0.00,Wunderground v.1.15,2013-04-15 20:13:00,
2013-04-15 15:18:00,44.4,31.4,29.94,NW,308,2.0,5.0,60,0.00,,,0.00,Wunderground v.1.15,2013-04-15 20:18:00,
2013-04-15 15:23:00,44.8,31.3,29.94,North,350,3.0,5.0,59,0.00,,,0.00,Wunderground v.1.15,2013-04-15 20:23:00,
2013-04-15 15:33:00,45.4,32.7,29.93,NE,43,2.0,2.0,61,0.00,,,0.00,Wunderground v.1.15,2013-04-15 20:33:00,
2013-04-15 15:43:00,46.3,32.3,29.93,North,10,3.0,5.0,58,0.00,,,0.00,Wunderground v.1.15,2013-04-15 20:43:00,
2013-04-15 15:53:00,46.9,32.9,29.93,NNE,33,3.0,3.0,58,0.00,,,0.00,Wunderground v.1.15,2013-04-15 20:53:00,
2013-04-15 16:03:00,47.4,32.5,29.93,North,355,2.0,2.0,56,0.00,,,0.00,Wunderground v.1.15,2013-04-15 21:03:00,
2013-04-15 16:13:00,47.9,32.9,29.92,North,355,2.0,2.0,56,0.00,,,0.00,Wunderground v.1.15,2013-04-15 21:13:00,
2013-04-15 16:23:00,48.2,31.9,29.92,NNE,29,1.0,2.0,53,0.00,,,0.00,Wunderground v.1.15,2013-04-15 21:23:00,
2013-04-15 16:33:00,48.0,32.1,29.93,NW,324,1.0,1.0,54,0.00,,,0.00,Wunderground v.1.15,2013-04-15 21:33:00,
2013-04-15 16:43:00,47.8,32.4,29.92,North,360,2.0,5.0,55,0.00,,,0.00,Wunderground v.1.15,2013-04-15 21:43:00,
2013-04-15 16:53:00,47.8,32.4,29.92,NNE,25,2.0,4.0,55,0.00,,,0.00,Wunderground v.1.15,2013-04-15 21:53:00,
2013-04-15 17:03:00,47.7,32.3,29.93,NNE,28,2.0,2.0,55,0.00,,,0.00,Wunderground v.1.15,2013-04-15 22:03:00,
2013-04-15 17:13:00,47.5,31.7,29.93,NNE,30,2.0,3.0,54,0.00,,,0.00,Wunderground v.1.15,2013-04-15 22:13:00,
2013-04-15 17:23:00,47.4,31.6,29.94,NNE,24,2.0,2.0,54,0.00,,,0.00,Wunderground v.1.15,2013-04-15 22:23:00,
2013-04-15 17:33:00,47.3,31.5,29.93,NNE,19,3.0,3.0,54,0.00,,,0.00,Wunderground v.1.15,2013-04-15 22:33:00,
2013-04-15 17:43:00,47.3,31.5,29.94,NNE,20,2.0,2.0,54,0.00,,,0.00,Wunderground v.1.15,2013-04-15 22:43:00,
2013-04-15 17:53:00,47.2,31.4,29.94,NNE,19,2.0,2.0,54,0.00,,,0.00,Wunderground v.1.15,2013-04-15 22:53:00,
2013-04-15 18:03:00,47.1,31.3,29.94,North,5,2.0,2.0,54,0.00,,,0.00,Wunderground v.1.15,2013-04-15 23:03:00,
2013-04-15 18:13:00,46.9,31.1,29.94,North,11,2.0,2.0,54,0.00,,,0.00,Wunderground v.1.15,2013-04-15 23:13:00,
2013-04-15 18:23:00,46.6,31.3,29.94,North,11,2.0,2.0,55,0.00,,,0.00,Wunderground v.1.15,2013-04-15 23:23:00,
2013-04-15 18:33:00,46.3,31.0,29.95,North,10,2.0,2.0,55,0.00,,,0.00,Wunderground v.1.15,2013-04-15 23:33:00,
2013-04-15 18:43:00,46.0,31.2,29.96,North,5,1.0,1.0,56,0.00,,,0.00,Wunderground v.1.15,2013-04-15 23:43:00,
2013-04-15 18:53:00,45.8,30.5,29.96,North,360,1.0,1.0,55,0.00,,,0.00,Wunderground v.1.15,2013-04-15 23:53:00,
2013-04-15 19:03:00,45.6,30.8,29.96,North,5,0.0,0.0,56,0.00,,,0.00,Wunderground v.1.15,2013-04-16 00:03:00,
2013-04-15 19:13:00,45.4,30.2,29.97,North,360,0.0,2.0,55,0.00,,,0.00,Wunderground v.1.15,2013-04-16 00:13:00,
2013-04-15 19:23:00,45.2,30.4,29.97,North,360,0.0,1.0,56,0.00,,,0.00,Wunderground v.1.15,2013-04-16 00:23:00,
2013-04-15 19:33:00,45.0,30.7,29.97,North,360,0.0,0.0,57,0.00,,,0.00,Wunderground v.1.15,2013-04-16 00:33:00,
2013-04-15 19:43:00,44.9,31.0,29.97,North,360,0.0,0.0,58,0.00,,,0.00,Wunderground v.1.15,2013-04-16 00:43:00,
2013-04-15 19:53:00,44.7,30.8,29.98,North,360,0.0,0.0,58,0.00,,,0.00,Wunderground v.1.15,2013-04-16 00:53:00,
2013-04-15 20:03:00,44.6,31.1,29.98,North,360,0.0,0.0,59,0.00,,,0.00,Wunderground v.1.15,2013-04-16 01:03:00,
2013-04-15 20:13:00,44.4,31.0,29.99,North,360,0.0,0.0,59,0.00,,,0.00,Wunderground v.1.15,2013-04-16 01:13:00,
2013-04-15 20:23:00,44.3,31.3,29.99,North,360,0.0,0.0,60,0.00,,,0.00,Wunderground v.1.15,2013-04-16 01:23:00,
2013-04-15 20:33:00,44.1,31.1,30.00,North,360,0.0,0.0,60,0.00,,,0.00,Wunderground v.1.15,2013-04-16 01:33:00,
2013-04-15 20:43:00,44.0,31.0,30.01,North,360,0.0,0.0,60,0.00,,,0.00,Wunderground v.1.15,2013-04-16 01:43:00,
2013-04-15 20:53:00,43.8,31.2,30.02,North,360,0.0,0.0,61,0.00,,,0.00,Wunderground v.1.15,2013-04-16 01:53:00,
2013-04-15 21:03:00,43.7,31.1,30.03,North,360,0.0,0.0,61,0.00,,,0.00,Wunderground v.1.15,2013-04-16 02:03:00,
2013-04-15 21:13:00,43.6,31.8,30.04,North,360,0.0,0.0,63,0.00,,,0.00,Wunderground v.1.15,2013-04-16 02:13:00,
2013-04-15 21:23:00,43.6,31.8,30.04,NNE,27,2.0,2.0,63,0.00,,,0.00,Wunderground v.1.15,2013-04-16 02:23:00,
2013-04-15 21:33:00,43.7,31.9,30.05,North,360,3.0,4.0,63,0.00,,,0.00,Wunderground v.1.15,2013-04-16 02:33:00,
2013-04-15 21:43:00,43.8,32.0,30.06,NNE,28,3.0,3.0,63,0.00,,,0.00,Wunderground v.1.15,2013-04-16 02:43:00,
2013-04-15 21:53:00,43.8,31.6,30.06,NE,39,3.0,3.0,62,0.00,,,0.00,Wunderground v.1.15,2013-04-16 02:53:00,
2013-04-15 22:03:00,43.7,31.5,30.06,NNE,19,3.0,3.0,62,0.00,,,0.00,Wunderground v.1.15,2013-04-16 03:03:00,
2013-04-15 22:13:00,43.5,30.9,30.06,NNE,29,2.0,2.0,61,0.00,,,0.00,Wunderground v.1.15,2013-04-16 03:13:00,
2013-04-15 22:23:00,43.1,31.0,30.07,NNE,22,3.0,3.0,62,0.00,,,0.00,Wunderground v.1.15,2013-04-16 03:23:00,
2013-04-15 22:33:00,42.6,30.5,30.08,NNE,33,3.0,3.0,62,0.00,,,0.00,Wunderground v.1.15,2013-04-16 03:33:00,
2013-04-15 22:43:00,42.2,30.5,30.08,NNE,13,3.0,3.0,63,0.00,,,0.00,Wunderground v.1.15,2013-04-16 03:43:00,
2013-04-15 22:53:00,41.9,30.2,30.09,NE,34,3.0,3.0,63,0.00,,,0.00,Wunderground v.1.15,2013-04-16 03:53:00,
2013-04-15 23:03:00,41.5,29.8,30.08,NNE,16,2.0,2.0,63,0.00,,,0.00,Wunderground v.1.15,2013-04-16 04:03:00,
2013-04-15 23:13:00,41.2,29.5,30.09,NNE,26,3.0,4.0,63,0.00,,,0.00,Wunderground v.1.15,2013-04-16 04:13:00,
2013-04-15 23:23:00,41.0,29.7,30.08,NE,43,3.0,3.0,64,0.00,,,0.00,Wunderground v.1.15,2013-04-16 04:23:00,
2013-04-15 23:28:00,40.9,29.7,30.09,NE,37,2.0,3.0,64,0.00,,,0.00,Wunderground v.1.15,2013-04-16 04:28:00,
2013-04-15 23:33:00,40.7,29.8,30.09,NNE,26,2.0,2.0,65,0.00,,,0.00,Wunderground v.1.15,2013-04-16 04:33:00,
2013-04-15 23:43:00,40.4,29.9,30.10,NNE,28,2.0,2.0,66,0.00,,,0.00,Wunderground v.1.15,2013-04-16 04:43:00,
2013-04-15 23:53:00,40.2,29.7,30.10,NE,44,2.0,2.0,66,0.00,,,0.00,Wunderground v.1.15,2013-04-16 04:53:00,